This demonstration page uses our WeatherBlox Daily Observations layout. Learn more.

Left ArrowRight Arrow

39.01783, -85.05884

Hourly Observations for July 10, 2018

Temp ( °F °C ) Dew Point ( °F °C ) Humidity (%) Winds ( mph kmh ) Pressure ( in mb ) Visibility ( mi km ) Precip ( " mm )
12:52 am 00:52 Clear 73 22.8 68 20 84 84 Calm 30.12 1020 10 16 0.00 0.00
1:52 am 01:52 Clear 76 24.4 67 19.4 74 74 W 7 11 30.11 1020 10 16 0.00 0.00
2:52 am 02:52 Clear 73 22.8 67 19.4 81 81 W 6 9 30.11 1020 10 16 0.00 0.00
3:52 am 03:52 Clear 73 22.8 67 19.4 81 81 W 6 9 30.10 1019 10 16 0.00 0.00
4:52 am 04:52 Clear 72 22.2 67 19.4 84 84 W 7 11 30.09 1019 10 16 0.00 0.00
5:52 am 05:52 Clear 73 22.8 68 20 84 84 WNW 8 13 30.10 1019 10 16 0.00 0.00
6:52 am 06:52 Sunny 72 22.2 67 19.4 84 84 Calm 30.10 1019 9 14 0.00 0.00
7:52 am 07:52 Sunny 75 23.9 69 20.6 82 82 WNW 6 9 30.11 1020 8 13 0.00 0.00
8:52 am 08:52 Sunny 81 27.2 69 20.6 67 67 NW 8 13 30.11 1020 10 16 0.00 0.00
9:52 am 09:52 Mostly Sunny 84 28.9 69 20.6 61 61 WNW 9 15 30.10 1019 10 16 0.00 0.00
10:52 am 10:52 Mostly Sunny 87 30.6 70 21.1 57 57 WNW 9 15 30.09 1019 10 16 0.00 0.00
11:52 am 11:52 Mostly Cloudy 88 31.1 69 20.6 54 54 VRB 5 7 30.09 1019 10 16 0.00 0.00
12:52 pm 12:52 Partly Cloudy 90 32.2 69 20.6 50 50 VRB 6 9 30.07 1018 10 16 0.00 0.00
1:52 pm 13:52 Mostly Cloudy 90 32.2 68 20 48 48 WNW 13 20 30.06 1018 10 16 0.00 0.00
2:52 pm 14:52 Partly Cloudy 92 33.3 66 18.9 43 43 W 13 20 30.03 1017 10 16 0.00 0.00
3:52 pm 15:52 Partly Cloudy 93 33.9 65 18.3 40 40 W 13 20 30.02 1017 10 16 0.00 0.00
4:52 pm 16:52 Mostly Cloudy 93 33.9 66 18.9 41 41 WNW 12 19 30.00 1016 10 16 0.00 0.00
5:52 pm 17:52 Mostly Cloudy 91 32.8 64 17.8 41 41 W 15 24 29.99 1016 10 16 0.00 0.00
6:52 pm 18:52 Mostly Cloudy 89 31.7 69 20.6 52 52 W 12 19 29.99 1016 10 16 0.00 0.00
7:52 pm 19:52 Mostly Cloudy 88 31.1 68 20 52 52 W 9 15 29.97 1015 10 16 0.00 0.00
8:52 pm 20:52 Cloudy 84 28.9 67 19.4 57 57 N 7 11 29.98 1015 10 16 0.00 0.00
9:09 pm 21:09 Cloudy with Thunderstorms 84 28.9 67 19.4 57 57 N 6 9 29.97 1015 10 16 0.00 0.00
9:48 pm 21:48 Cloudy with Light Rain 77 25 72 22 83 83 WNW 18 30 30.00 1016 7 11 0.00 0.03
9:52 pm 21:52 Cloudy with Rain 76 24.4 72 22.2 88 88 WNW 17 28 30.00 1016 5 8 0.01 0.25
10:52 pm 22:52 Cloudy 75 23.9 74 23.3 96 96 SSW 3 6 29.99 1016 9 14 0.02 0.51
11:52 pm 23:52 Cloudy 76 24.4 74 23.3 94 94 W 6 9 29.98 1015 10 16 0.00 0.00

Powered by AerisWeather